This is the latest recevied weather packets stored in our database for station/object VA3ZFM-10. If no packets are shown the sender has not sent any weather packets the latest 10 day(s).
| Time | Temp. | Humidity | Pressure | Rain* | Wind** | Luminosity | Snow |
|---|---|---|---|---|---|---|---|
| 1777819640 | 8.33° C | 37% | 1010.1 hPa | 0 mm | - | - | - |
| 1777819338 | 8.89° C | 36% | 1010.2 hPa | 0 mm | - | - | - |
| 1777819034 | 8.33° C | 37% | 1010.1 hPa | 0 mm | - | - | - |
| 1777818732 | 7.78° C | 38% | 1010.3 hPa | 0 mm | - | - | - |
| 1777818428 | 8.33° C | 38% | 1010.1 hPa | 0 mm | - | - | - |
| 1777818125 | 7.22° C | 39% | 1010.2 hPa | 0 mm | - | - | - |
| 1777817821 | 7.78° C | 39% | 1010.4 hPa | 0 mm | - | - | - |
| 1777817519 | 7.78° C | 38% | 1010.6 hPa | 0 mm | - | - | - |
| 1777817215 | 7.22° C | 40% | 1010.5 hPa | 0 mm | - | - | - |
| 1777816913 | 7.22° C | 41% | 1010.6 hPa | 0 mm | - | - | - |
| 1777816609 | 7.22° C | 40% | 1010.6 hPa | 0 mm | - | - | - |
| 1777816306 | 6.67° C | 41% | 1010.5 hPa | 0 mm | - | - | - |
| 1777816004 | 6.67° C | 42% | 1010.8 hPa | 0 mm | - | - | - |
| 1777815701 | 7.22° C | 41% | 1010.5 hPa | 0 mm | - | - | - |
| 1777815398 | 6.67° C | 43% | 1010.7 hPa | 0 mm | - | - | - |
| 1777815095 | 6.67° C | 44% | 1010.7 hPa | 0 mm | - | - | - |
| 1777814791 | 6.11° C | 44% | 1010.8 hPa | 0 mm | - | - | - |
| 1777814488 | 5.56° C | 46% | 1010.8 hPa | 0 mm | - | - | - |
| 1777814186 | 5.56° C | 47% | 1011 hPa | 0 mm | - | - | - |
| 1777813882 | 5.56° C | 46% | 1010.8 hPa | 0 mm | - | - | - |
| 1777813580 | 5.56° C | 48% | 1010.8 hPa | 0 mm | - | - | - |
| 1777813278 | 5° C | 48% | 1011 hPa | 0 mm | - | - | - |
| 1777812974 | 5° C | 49% | 1011.1 hPa | 0 mm | - | - | - |
| 1777812672 | 4.44° C | 49% | 1011 hPa | 0 mm | - | - | - |
| 1777812369 | 4.44° C | 48% | 1011.2 hPa | 0 mm | - | - | - |
* Rain latest hour (hover to see other rain measurements)
** Current wind speed in m/s (hover to see current wind gust speed)